Regional Weather Roundup
Issued by NWS Jackson, KY

Home | Current Version | Previous Version | Graphics & Text | Print | Product List | Glossary On
Versions: 1 2 3 4 5 6 7 8 9 10 11 12 13 14 15 16 17 18 19 20 21 22 23 24 25 26 27 28 29 30 31 32 33 34 35 36 37 38 39 40 41 42 43 44 45 46 47 48 49 50
000
ASUS43 KJKL 230311
RWRJKL

EAST KENTUCKY HOURLY WEATHER ROUNDUP
NATIONAL WEATHER SERVICE JACKSON KY
1000 PM EST SAT NOV 22 2014

NOTE: "FAIR" INDICATES FEW OR NO CLOUDS BELOW 12,000 FEET WITH
NO SIGNIFICANT WEATHER AND/OR OBSTRUCTIONS TO VISIBILITY.

* THESE REPORTS ARE NOT UNDER NWS QUALITY CONTROL AND MAY NOT
  REPORT WEATHER SUCH AS PRECIPITATION AND FOG.

KYZ079-080-083-085-087-088-110-112-115-119-120-230400
...EASTERN KENTUCKY...

CITY           SKY/WX    TMP DP  RH WIND       PRES   REMARKS
JACKSON        CLEAR     50  27  40 S3        30.14F
LONDON         PTCLDY    50  30  46 S5        30.15F
SOMERSET*      PTCLDY    52  32  46 S3        30.15S
MONTICELLO*    MOCLDY    54  38  54 S10       30.17S
MIDDLESBORO*   PTCLDY    35  32  88 CALM      30.21S
HARLAN APT*    PTCLDY    46  23  39 E3        30.20R
BIG SANDY*     PTCLDY    53  24  32 S7        30.16S
MOREHEAD APT*  MOCLDY    50  27  40 S7        30.15S
$$

KYZ035-036-041-042-044-050-067-078-099-230400
...CENTRAL KENTUCKY...

CITY           SKY/WX    TMP DP  RH WIND       PRES   REMARKS
MT STERLING*   PTCLDY    46  32  57 SW7       30.13F
FLEMING/MASON* CLOUDY    48  30  50 S8        30.12S
DANVILLE*      PTCLDY    46  34  61 SW6       30.12S
RICHMOND*      PTCLDY    54  34  47 S8        30.12S
LEXINGTON      PTCLDY    49  33  54 S9        30.11S
FRANKFORT      CLEAR     47  30  51 S5        30.08S
$$

KYZ091>093-OHZ055-061-077-WVZ005-015-034-035-042-230400
...SOUTHERN OHIO/WEST VIRGINIA...

CITY           SKY/WX    TMP DP  RH WIND       PRES   REMARKS
COVINGTON      PTCLDY    51  32  48 S8        30.07S
COLUMBUS       CLOUDY    48  33  56 S3        30.08S
DAYTON         CLOUDY    54  36  50 S15       30.05S
WILMINGTON     CLOUDY    49  32  52 S8        30.08S
HUNTINGTON     PTCLDY    51  24  34 S5        30.13F
CHARLESTON     PTCLDY    49  24  37 S5        30.15F
PINEVILLE*     CLEAR     33  31  94 MISG      30.25S
BECKLEY        CLEAR     44  16  32 SE10      30.19F
BLUEFIELD      CLEAR     43  16  33 E3        30.21F
$$

VAZ002-007-008-TNZ017-027-036-066-071-230400
...SOUTHWEST VIRGINIA/EAST TENNESSEE...

CITY           SKY/WX    TMP DP  RH WIND       PRES   REMARKS
WISE*          CLEAR     48  19  32 S9        30.20S
JONESVILLE*    CLEAR     34  28  80 CALM      30.23S
ABINGDON*      PTCLDY    40  23  49 CALM      30.23S
BRISTOL        PTCLDY    37  26  64 CALM      30.23F
KNOXVILLE      CLOUDY    44  31  60 CALM      30.19F
OAK RIDGE      MOCLDY    44  34  67 CALM      30.21S
CROSSVILLE     MOCLDY    54  37  52 VRB6G17   30.17S
NASHVILLE      MOCLDY    54  40  59 S7        30.12F
$$

...KEY TO REMARKS...
VSB - VISIBILITY IN MILES
WCI - WIND CHILL INDEX
HX  - HEAT INDEX

$$


USA.gov is the U.S. government's official web portal to all federal, state and local government web resources and services.